Temperature
23 22 21 21 23 25 27 28 29 29 29 29 28 27 26 25 24 22 21 21 21 20 20 20 20 19 19 19 19 19 19 19 19 19 19 19 18 18 18 18 18 18 18 18 18 18 18 18 18
22 22 22 23 24 26 28 29 29 29 29 28 28 27 26 25 24 22 21 21 20 20 20 20 20 19 19 19 19 19 19 19 18 19 19 18 18 18 18 18 18 18 18 18 18 18 18 18 18
23 23 24 25 26 28 28 29 29 29 29 28 27 26 25 24 23 22 21 21 20 20 20 20 20 20 19 19 19 19 19 19 19 18 19 18 18 18 18 18 18 18 18 18 18 18 18 18 18
23 25 25 26 28 29 30 30 30 30 29 28 27 26 24 23 22 22 22 21 21 20 20 20 20 20 19 19 19 19 19 19 19 18 19 19 19 18 18 19 18 18 18 18 18 18 18 18 18
24 25 26 28 29 30 31 31 30 30 29 28 26 25 23 22 22 22 22 21 21 20 20 20 20 20 19 19 19 19 19 19 19 19 19 19 19 19 19 19 19 18 18 18 18 18 19 19 19
26 26 27 28 29 30 31 30 30 29 29 27 26 25 23 22 22 22 22 21 21 20 20 20 20 20 20 19 19 19 19 19 19 19 19 19 19 19 19 19 19 19 19 18 19 19 19 19 19
27 27 28 29 29 30 31 30 30 29 28 28 26 25 23 23 22 22 22 21 21 21 20 20 20 20 20 20 19 19 19 19 19 19 19 19 19 19 19 19 19 19 19 19 19 19 19 19 19
28 28 29 30 30 30 31 30 29 29 28 27 26 25 23 23 22 22 22 22 21 21 20 20 20 20 20 20 20 19 19 19 19 19 19 19 19 19 19 19 19 19 19 19 19 19 19 19 19
30 29 29 30 30 30 31 30 30 29 28 27 26 25 23 23 23 22 22 22 22 21 21 21 20 20 20 19 20 19 19 19 19 19 19 19 19 19 19 19 19 19 19 19 19 19 19 19 19
31 30 30 32 32 31 31 31 30 29 28 27 26 24 23 23 23 23 22 22 22 22 21 21 21 20 20 20 20 19 19 19 19 19 19 19 19 19 19 19 19 19 19 19 19 19 19 19 19
32 31 32 32 32 32 31 31 30 29 28 27 26 25 24 23 23 23 22 22 22 22 22 21 21 20 20 20 20 20 19 19 19 19 19 19 19 19 19 19 19 19 19 19 19 19 19 19 19
32 33 33 33 32 32 31 31 30 29 28 27 26 25 24 24 23 23 23 22 22 22 22 21 21 20 20 20 20 20 20 19 19 19 19 19 19 19 19 19 19 19 19 19 19 19 19 19 19
33 33 33 33 32 32 31 30 30 29 28 27 26 25 25 24 23 23 23 22 22 22 21 21 21 20 20 20 20 20 20 20 19 19 19 19 19 19 19 19 19 19 19 19 19 19 19 19 19
33 33 33 33 32 31 30 30 30 29 28 27 26 26 25 24 24 23 23 22 22 21 21 21 20 20 20 20 20 20 20 20 19 19 19 19 19 19 19 19 19 19 19 19 19 19 19 19 19
33 33 33 33 33 31 30 30 30 29 28 28 27 26 25 25 24 23 23 22 22 21 21 20 20 20 20 20 20 20 20 20 19 19 19 19 19 19 19 19 19 19 19 19 19 19 19 19 19
33 32 31 33 34 32 31 29 30 30 29 28 27 27 26 25 24 24 23 22 22 21 21 21 21 20 20 20 20 20 20 20 20 19 19 19 19 19 19 19 19 19 19 19 19 19 19 19 19
31 30 31 32 34 33 32 30 31 30 30 29 28 27 26 25 25 24 23 22 22 21 21 20 20 20 20 20 20 20 20 20 20 19 19 19 19 19 19 19 19 19 19 19 19 19 19 19 19
30 31 31 32 34 34 32 31 31 31 31 30 29 28 27 26 25 24 24 23 22 21 21 20 20 20 20 20 20 20 20 20 20 19 19 19 19 19 19 19 19 19 19 19 19 19 19 19 19
32 31 31 32 34 33 32 32 32 32 31 31 30 29 28 27 26 25 24 23 22 21 21 20 20 20 20 20 20 20 20 20 20 20 19 19 19 19 19 19 19 19 19 19 19 19 19 19 20
32 32 32 33 34 33 32 32 32 32 32 31 30 29 29 28 26 25 24 23 22 21 21 20 20 20 20 20 20 20 20 20 20 20 19 19 19 19 19 19 19 19 19 19 19 19 19 19 20
33 33 33 33 33 33 32 31 31 32 32 32 31 30 29 28 27 25 24 24 23 22 21 21 20 20 20 20 20 20 20 20 20 19 19 19 19 19 19 19 19 19 19 19 19 19 19 19 20
32 34 33 33 32 31 31 29 30 32 32 32 32 31 30 29 28 26 25 24 23 22 21 21 20 20 20 20 20 19 19 20 20 19 19 19 19 19 19 19 19 19 19 19 19 19 19 19 19
33 34 33 33 31 31 31 30 30 32 31 32 32 32 31 30 28 27 26 25 24 23 22 21 21 20 20 20 20 19 20 20 19 19 19 19 19 19 19 19 19 19 19 19 19 19 19 19 19
34 33 32 32 31 29 31 30 30 32 32 32 32 32 31 30 29 28 26 25 24 24 22 21 21 20 20 20 20 20 20 19 19 19 19 19 19 19 19 19 19 19 18 18 19 19 19 19 19
34 32 29 29 29 29 31 31 30 33 33 33 33 32 32 31 29 28 27 25 25 24 23 22 21 21 20 20 20 20 20 20 19 19 19 19 19 19 19 19 19 19 19 19 19 18 19 19 19
32 32 30 29 29 30 31 31 32 34 34 33 33 32 32 31 30 29 27 26 25 24 23 22 22 21 21 20 20 20 20 20 20 20 19 19 19 19 19 19 19 19 19 19 18 18 18 18 18
31 32 32 31 31 30 30 31 32 34 34 34 33 33 32 31 30 29 28 26 25 24 23 23 22 21 21 21 20 20 20 20 20 20 19 19 19 19 19 19 19 19 19 19 18 18 18 18 18
33 32 32 30 29 28 29 30 30 32 32 33 33 32 32 31 30 29 28 27 26 25 24 23 22 22 21 21 20 20 20 20 20 20 19 20 19 19 19 19 19 19 19 19 18 18 18 18 18
32 32 31 30 30 28 28 29 31 31 32 32 32 32 31 31 30 29 28 27 26 25 24 23 22 21 21 21 21 20 20 20 20 20 20 20 20 19 19 19 19 19 19 19 18 18 18 18 18
33 32 32 30 29 29 28 29 32 32 32 31 31 31 30 30 30 29 28 27 26 25 24 23 22 22 21 21 20 20 20 20 19 19 20 20 19 19 19 19 19 19 18 18 18 18 18 18 18
Wind_Speed
9 11 9 5 4 2 6 10 11 11 11 12 13 12 15 15 10 9 7 11 14 14 15 15 14 14 14 13 13 12 12 12 12 12 12 12 11 11 11 10 10 10 10 10 9 9 8 7 6
9 10 7 4 3 3 9 10 12 11 10 10 13 14 16 14 12 10 8 11 14 14 14 15 14 14 13 13 12 12 12 12 11 11 11 11 11 10 10 9 9 9 9 9 8 8 8 7 6
10 11 5 4 3 7 10 10 11 10 10 10 12 13 11 10 10 8 10 12 14 15 15 15 14 14 13 12 12 11 12 11 11 10 10 11 11 10 9 9 9 9 9 8 8 8 7 6 5
6 5 4 2 6 10 10 10 10 11 12 11 11 10 10 10 8 10 12 13 14 15 15 15 14 13 13 12 12 12 11 11 10 10 10 10 10 10 10 10 10 10 9 8 8 7 6 6 4
7 4 3 3 8 11 12 11 11 12 11 13 13 13 12 11 12 11 11 12 13 14 14 15 14 13 13 12 12 11 11 11 10 10 10 10 10 11 11 11 10 10 9 8 8 7 6 5 3
3 3 3 6 10 12 11 10 11 12 11 12 13 12 10 10 11 10 10 11 11 13 13 14 14 13 13 12 11 11 11 10 10 10 10 10 10 10 10 10 10 9 8 7 7 6 5 4 3
4 2 3 7 8 11 11 10 12 12 11 11 11 11 9 9 9 10 10 11 10 12 13 13 13 13 13 12 12 11 11 10 9 9 9 9 9 9 9 9 9 8 7 6 6 5 4 4 3
3 2 3 6 8 10 9 11 11 11 10 9 9 9 10 9 9 10 10 10 10 10 11 11 12 12 13 12 11 11 10 9 8 8 8 8 9 9 9 9 8 8 7 5 5 4 4 3 4
3 1 5 8 8 8 8 10 10 11 12 12 12 13 14 12 11 10 9 9 8 9 8 9 10 9 10 12 12 11 10 8 7 8 8 8 7 8 8 9 9 8 7 6 5 5 5 5 6
1 3 7 7 8 9 8 9 9 10 12 13 14 15 14 12 11 10 9 9 8 8 8 8 9 7 7 8 10 8 8 8 6 5 6 6 5 6 8 10 10 9 8 7 7 7 7 7 6
4 6 7 9 9 9 9 9 8 11 11 12 13 14 13 12 9 9 9 8 7 7 7 8 8 6 5 4 5 5 5 6 6 5 5 4 3 5 7 7 8 8 8 7 6 7 7 5 4
4 5 6 8 8 8 10 11 12 12 12 13 13 13 12 11 9 7 9 9 8 6 7 8 8 6 5 4 3 3 4 4 4 5 3 3 2 1 2 2 4 5 5 4 4 4 4 4 4
3 6 6 7 8 10 11 10 11 12 13 14 13 13 12 11 10 9 9 8 8 7 7 8 7 6 5 3 1 3 2 3 5 4 4 2 2 2 2 1 1 2 3 3 1 0 1 1 0
2 4 5 6 8 9 9 7 10 10 12 12 12 11 10 10 9 9 8 8 7 6 7 7 8 7 4 3 1 1 3 3 4 4 4 2 2 2 2 1 1 1 1 1 1 1 1 1 0
0 1 2 4 7 9 9 6 9 11 11 12 11 10 10 10 9 9 8 8 8 7 6 6 8 7 4 3 2 2 2 4 4 4 4 3 3 2 1 1 1 1 2 1 1 0 1 1 1
3 2 1 3 4 8 6 6 8 11 11 11 11 11 10 9 9 9 9 8 8 8 7 5 6 7 5 3 1 1 2 3 3 4 4 3 3 2 1 1 1 1 1 1 0 1 1 0 0
4 4 4 4 3 5 6 7 9 11 11 11 10 11 11 10 9 9 11 10 8 8 7 5 4 6 5 4 2 1 2 1 1 2 3 3 2 2 1 1 1 1 1 1 1 1 1 0 1
3 1 2 2 4 4 5 7 10 11 10 11 11 11 11 10 10 10 11 11 10 9 7 6 5 5 4 4 2 1 2 2 2 2 3 2 1 2 0 1 1 1 0 1 1 1 2 1 2
5 3 3 2 2 2 3 6 9 11 10 11 11 11 11 11 12 11 11 11 11 9 8 7 6 5 3 2 2 2 2 2 2 2 4 2 1 1 1 1 1 0 0 0 1 1 2 2 1
6 5 5 3 2 2 2 4 7 9 10 10 11 12 12 12 12 12 11 11 11 10 9 8 7 6 5 3 2 2 2 2 2 2 3 2 1 0 1 1 1 0 0 0 1 2 2 3 1
6 6 4 2 2 3 2 3 6 9 9 10 12 12 13 13 13 13 13 11 12 11 10 8 7 6 5 4 3 2 2 1 1 3 3 1 1 1 0 1 1 1 0 0 1 1 2 3 2
5 5 6 5 4 4 4 2 5 10 10 11 11 12 13 14 14 14 14 12 12 12 11 9 8 7 5 5 4 4 3 2 2 2 2 3 2 1 1 1 0 1 1 0 1 1 2 2 2
6 5 7 7 6 7 4 4 5 10 10 10 10 10 12 14 15 14 14 13 12 13 12 10 8 7 6 5 4 3 2 2 2 2 3 3 3 2 1 1 1 1 0 0 1 1 1 2 3
7 6 7 8 5 5 6 4 3 6 8 8 9 9 10 13 13 14 14 13 11 12 11 11 9 8 7 6 5 4 3 2 2 2 2 2 2 3 2 3 2 2 1 1 1 1 1 1 3
8 5 3 5 3 4 6 3 2 5 7 7 9 9 9 12 13 13 13 13 11 11 11 11 10 9 8 7 5 5 4 4 4 3 3 3 2 2 3 3 2 2 2 2 1 2 2 2 2
6 7 5 5 3 2 3 2 4 5 7 8 9 10 9 9 12 13 13 13 11 11 10 11 11 10 9 7 6 5 5 5 4 4 3 2 2 2 3 3 3 2 2 2 1 2 2 2 3
7 8 7 7 6 3 1 2 4 6 7 7 8 10 10 9 11 12 13 12 11 11 10 11 11 10 9 8 7 6 5 4 3 3 3 2 2 3 3 4 4 3 3 2 2 2 2 2 3
8 8 5 5 4 4 4 2 2 4 5 5 6 7 7 9 10 11 11 11 10 9 9 10 10 8 8 8 8 7 6 6 4 3 3 2 2 1 2 3 3 3 3 2 2 2 3 3 3
8 8 6 5 5 3 3 1 3 3 4 3 4 6 5 6 8 9 10 10 10 9 9 9 8 7 7 7 5 4 5 5 5 4 3 3 3 3 3 2 3 3 3 3 3 4 3 3 3
10 9 9 6 5 4 4 3 3 3 5 5 5 5 4 4 8 8 9 9 9 9 9 8 8 8 7 6 6 5 4 4 4 4 4 3 4 4 4 3 3 4 4 3 4 4 3 3 4
Wind_Direction
196 211 217 239 257 253 47 56 57 56 58 52 53 62 63 54 61 88 103 103 105 105 109 103 100 101 99 96 95 96 97 98 99 104 108 109 110 111 113 115 114 116 114 112 110 108 104 101 100
223 221 227 246 267 48 57 56 61 61 64 64 63 65 72 64 74 97 102 99 107 106 106 103 103 100 100 99 97 99 100 101 102 105 109 112 114 116 119 119 116 116 114 114 112 110 106 104 104
247 244 255 247 16 53 61 61 71 74 68 68 72 59 57 72 78 97 109 106 102 102 102 106 107 104 102 101 100 100 102 103 104 105 107 110 112 114 116 117 118 118 117 117 114 111 110 109 109
247 242 245 288 46 64 66 73 74 71 67 65 72 73 67 69 90 107 110 107 108 110 109 111 112 109 107 104 102 102 103 105 105 105 107 109 111 112 112 113 117 119 116 115 115 115 117 116 121
242 279 256 52 58 66 64 66 71 67 67 72 79 89 88 88 101 105 106 110 112 111 113 118 118 116 112 109 107 106 107 110 112 110 109 109 109 110 112 110 113 114 112 112 112 116 121 124 128
269 282 313 63 64 64 67 67 73 73 77 82 87 90 95 109 113 114 114 109 112 115 116 121 124 121 119 117 114 112 113 113 114 115 115 116 116 116 116 115 115 114 113 114 115 121 124 128 139
265 303 8 63 69 67 64 65 68 69 68 75 91 95 111 116 118 120 115 115 116 120 124 132 134 131 127 124 120 119 119 120 122 128 129 130 130 128 128 125 124 123 122 121 119 125 132 149 174
231 288 33 69 68 68 67 72 77 79 75 80 90 100 121 126 125 124 119 113 112 115 123 134 138 138 140 135 132 130 131 135 139 142 146 148 149 149 146 142 139 138 138 139 139 145 161 181 209
255 312 53 66 76 79 72 79 81 88 85 78 82 102 118 125 123 123 120 114 108 109 120 128 128 136 140 139 136 145 146 148 153 154 161 170 172 163 155 145 149 153 158 163 172 182 194 209 226
150 76 69 71 80 91 86 82 91 89 86 88 93 104 118 126 128 128 127 121 119 124 129 124 120 123 126 126 137 153 148 152 156 149 164 174 169 150 143 152 160 166 176 185 200 205 213 221 218
72 72 68 73 78 90 89 83 84 92 93 98 111 119 126 127 127 128 125 121 121 124 121 114 113 110 108 112 133 135 139 150 149 158 155 140 136 140 142 153 163 175 186 195 194 205 219 224 224
89 83 83 85 90 89 86 84 77 82 97 109 114 123 125 125 123 122 119 119 119 118 115 108 109 101 94 89 103 134 142 144 130 142 139 136 128 111 122 138 156 173 183 178 190 204 218 211 215
91 94 99 94 94 83 80 83 87 93 103 110 118 121 125 130 130 124 121 122 124 129 119 104 104 98 88 74 83 117 119 122 126 130 125 129 133 123 108 87 123 175 169 174 204 199 314 325 337
68 100 105 111 105 95 93 95 103 107 113 117 121 125 130 126 127 127 126 129 126 124 119 118 122 114 112 118 107 104 115 118 117 119 119 131 123 94 106 143 217 226 190 182 169 159 226 261 47
98 118 121 138 130 123 116 107 116 130 130 131 131 129 131 134 136 137 136 134 135 131 124 132 135 125 129 132 161 127 135 131 126 135 147 163 134 125 115 150 205 209 222 208 177 217 254 200 156
231 230 181 173 152 138 134 124 137 144 140 138 139 141 140 144 148 147 143 141 138 137 132 138 132 131 129 115 79 76 86 101 127 152 149 146 145 156 156 166 127 140 222 269 219 210 247 67 106
263 250 218 170 147 146 143 136 155 156 150 147 149 150 151 154 155 153 150 149 142 135 132 133 125 131 137 138 145 147 107 109 131 129 130 149 161 145 135 103 120 221 230 314 310 27 324 299 255
262 258 275 191 158 161 144 146 159 159 162 157 155 156 157 160 159 156 152 148 145 140 137 141 140 133 149 152 157 158 143 162 151 129 120 132 156 112 74 169 147 277 80 26 354 335 291 258 264
272 263 249 246 157 172 164 156 161 163 170 160 159 161 163 160 156 155 156 154 151 146 146 151 151 149 166 161 166 172 169 179 160 155 128 139 136 111 96 11 145 179 106 66 318 299 285 268 242
256 252 249 220 176 200 198 176 159 170 172 167 169 166 161 156 153 157 161 161 158 155 156 157 162 163 175 164 176 175 174 180 160 130 124 137 130 118 152 112 287 141 148 98 305 298 296 301 291
256 268 272 282 294 252 206 229 167 181 177 171 173 171 167 165 162 163 167 167 165 162 166 166 162 162 176 170 182 176 155 193 149 138 132 149 152 142 38 102 303 323 221 186 242 296 298 294 302
267 280 282 275 257 250 201 244 205 181 179 183 175 174 173 167 164 165 168 171 168 166 165 157 159 162 171 179 180 185 181 186 160 152 151 160 161 178 169 155 213 313 349 1 278 99 298 300 304
281 293 288 284 277 276 219 232 215 176 177 179 173 176 171 166 165 166 167 169 171 167 165 159 156 161 168 180 185 193 176 185 165 163 169 173 165 171 170 174 201 238 319 336 322 360 322 322 317
278 280 293 289 264 271 255 241 209 165 166 168 165 169 165 160 159 160 159 160 165 163 162 159 157 160 166 177 177 175 186 197 190 186 183 188 169 168 183 184 199 205 213 245 251 274 279 297 313
268 274 276 270 234 243 241 226 162 134 145 149 154 159 155 154 155 156 154 159 165 163 160 156 157 164 170 175 177 178 192 202 205 212 208 209 186 170 184 186 179 190 209 232 241 230 251 260 285
260 258 257 276 276 254 228 165 140 139 136 142 147 148 147 153 153 154 156 160 164 164 159 156 159 168 175 179 181 187 197 207 205 215 217 206 202 182 169 169 181 195 221 239 233 246 246 242 268
261 266 277 283 285 286 252 110 137 144 129 130 139 143 150 158 152 154 158 161 166 167 163 160 160 168 178 180 181 189 196 207 212 208 209 209 208 207 171 174 184 192 205 234 246 240 268 261 263
251 273 291 288 295 294 293 256 179 136 122 129 135 143 148 152 152 153 156 160 163 165 164 162 159 168 175 179 189 188 192 199 209 211 192 195 225 244 192 189 190 198 212 225 246 240 251 256 253
233 246 259 281 288 277 274 283 113 127 105 99 107 125 147 156 147 149 151 155 157 161 165 160 156 168 179 181 181 184 184 193 202 203 199 196 209 215 219 213 212 215 219 221 238 245 243 253 260
253 246 248 256 263 267 270 232 180 135 113 103 97 119 146 149 134 140 146 149 157 163 164 161 166 175 184 182 175 184 186 186 201 204 197 197 198 212 213 214 221 230 224 227 235 252 250 251 258
Height
1488 1488 1488 1491 1490 1489 1482 1474 1470 1471 1472 1475 1475 1477 1482 1485 1491 1503 1504 1502 1503 1502 1502 1503 1503 1504 1505 1506 1507 1508 1509 1510 1511 1512 1513 1514 1515 1517 1518 1519 1521 1522 1523 1525 1526 1526 1527 1527 1527
1487 1489 1492 1491 1489 1491 1484 1474 1473 1474 1476 1477 1478 1481 1484 1491 1495 1501 1503 1504 1504 1504 1505 1505 1506 1506 1507 1508 1509 1510 1511 1512 1513 1514 1515 1516 1517 1518 1520 1521 1522 1523 1525 1526 1527 1527 1528 1528 1527
1488 1491 1492 1486 1484 1485 1483 1474 1473 1475 1477 1478 1482 1486 1490 1496 1500 1502 1505 1506 1506 1506 1507 1507 1508 1509 1509 1510 1511 1512 1513 1514 1515 1516 1517 1518 1519 1521 1521 1523 1524 1525 1526 1527 1528 1528 1529 1528 1528
1491 1491 1489 1486 1483 1476 1473 1472 1473 1475 1478 1481 1483 1490 1497 1500 1502 1505 1506 1507 1508 1509 1509 1510 1510 1511 1512 1513 1513 1514 1516 1516 1517 1518 1519 1520 1521 1522 1523 1525 1526 1527 1528 1529 1529 1529 1530 1530 1529
1492 1490 1487 1486 1480 1473 1472 1473 1475 1477 1481 1484 1488 1494 1500 1503 1505 1507 1508 1509 1510 1511 1511 1512 1512 1513 1514 1515 1515 1516 1517 1518 1519 1521 1521 1522 1523 1524 1525 1526 1527 1528 1529 1530 1531 1531 1531 1531 1530
1491 1489 1490 1489 1481 1474 1474 1476 1477 1480 1483 1486 1490 1495 1502 1505 1506 1508 1510 1511 1512 1513 1513 1514 1514 1515 1516 1517 1517 1518 1519 1520 1521 1522 1523 1524 1525 1526 1527 1528 1529 1530 1531 1531 1532 1532 1532 1532 1532
1490 1488 1488 1484 1482 1479 1477 1478 1480 1482 1485 1488 1492 1497 1503 1506 1507 1509 1511 1512 1514 1515 1515 1516 1516 1517 1518 1519 1520 1520 1521 1522 1523 1524 1525 1527 1528 1528 1529 1530 1531 1532 1532 1533 1533 1533 1533 1534 1534
1485 1485 1484 1482 1482 1482 1478 1479 1483 1485 1488 1491 1493 1497 1503 1507 1508 1510 1512 1514 1515 1517 1517 1518 1519 1519 1520 1521 1522 1522 1523 1524 1525 1526 1527 1528 1529 1531 1531 1532 1533 1533 1534 1534 1535 1535 1535 1535 1535
1481 1486 1487 1482 1482 1481 1480 1481 1484 1487 1489 1492 1495 1499 1504 1507 1509 1511 1513 1515 1517 1518 1519 1520 1521 1522 1523 1523 1524 1525 1525 1526 1527 1528 1529 1530 1531 1532 1533 1534 1534 1535 1535 1535 1536 1536 1537 1537 1536
1478 1484 1482 1476 1476 1478 1481 1482 1484 1487 1491 1495 1499 1503 1506 1508 1510 1512 1514 1516 1518 1520 1521 1522 1523 1524 1525 1527 1526 1527 1528 1528 1529 1530 1531 1532 1533 1534 1535 1535 1536 1536 1536 1537 1537 1537 1537 1537 1537
1476 1479 1475 1475 1477 1479 1481 1483 1485 1487 1492 1498 1501 1505 1508 1510 1512 1513 1515 1517 1519 1521 1522 1523 1524 1525 1527 1528 1528 1529 1530 1530 1530 1531 1533 1533 1535 1536 1536 1536 1537 1537 1538 1538 1538 1538 1538 1538 1539
1476 1475 1476 1476 1478 1479 1482 1484 1487 1490 1495 1499 1503 1506 1508 1511 1513 1514 1516 1518 1520 1522 1523 1524 1525 1526 1527 1528 1529 1530 1531 1531 1532 1533 1534 1535 1535 1536 1537 1537 1538 1538 1539 1539 1539 1539 1539 1539 1540
1474 1476 1476 1477 1479 1481 1484 1487 1490 1493 1497 1501 1504 1507 1509 1512 1514 1515 1517 1519 1521 1522 1524 1525 1526 1527 1528 1528 1530 1531 1531 1532 1533 1534 1535 1535 1536 1537 1538 1538 1538 1539 1539 1540 1540 1540 1540 1540 1540
1475 1475 1476 1477 1479 1483 1487 1489 1492 1496 1499 1502 1505 1508 1510 1512 1514 1516 1518 1520 1521 1523 1524 1525 1526 1527 1528 1529 1530 1531 1532 1533 1534 1534 1535 1536 1537 1538 1538 1538 1539 1539 1540 1540 1540 1540 1540 1540 1540
1476 1477 1477 1476 1478 1482 1486 1491 1492 1495 1498 1502 1505 1508 1510 1513 1515 1517 1518 1520 1521 1523 1524 1525 1526 1527 1528 1530 1531 1532 1533 1534 1534 1535 1536 1536 1537 1538 1538 1539 1539 1539 1540 1540 1541 1541 1540 1540 1540
1476 1480 1487 1477 1475 1478 1486 1497 1492 1494 1497 1500 1503 1507 1510 1513 1514 1516 1518 1520 1521 1523 1524 1525 1527 1527 1529 1530 1531 1532 1533 1534 1535 1535 1536 1537 1537 1538 1538 1539 1539 1539 1540 1540 1540 1540 1540 1540 1540
1484 1491 1487 1479 1472 1475 1480 1491 1489 1491 1494 1497 1501 1505 1508 1512 1514 1516 1517 1519 1521 1522 1523 1525 1526 1527 1528 1530 1531 1532 1533 1534 1535 1536 1536 1536 1537 1538 1538 1538 1539 1539 1540 1540 1540 1540 1540 1540 1540
1492 1488 1486 1481 1472 1473 1478 1483 1484 1487 1491 1494 1498 1502 1506 1510 1513 1515 1517 1518 1520 1522 1523 1524 1526 1527 1528 1530 1531 1532 1533 1534 1535 1535 1536 1536 1537 1537 1537 1538 1538 1539 1539 1539 1539 1539 1539 1540 1539
1479 1483 1485 1478 1469 1472 1477 1480 1481 1484 1487 1491 1495 1499 1503 1507 1511 1514 1516 1518 1519 1521 1522 1524 1525 1526 1528 1529 1530 1532 1533 1533 1534 1535 1535 1536 1536 1537 1537 1537 1538 1538 1538 1538 1538 1538 1538 1539 1539
1477 1482 1481 1473 1468 1472 1479 1479 1477 1481 1484 1488 1491 1496 1500 1504 1508 1512 1515 1517 1519 1520 1521 1523 1524 1525 1527 1528 1530 1531 1532 1533 1534 1534 1535 1535 1536 1536 1537 1536 1537 1537 1537 1537 1537 1538 1538 1538 1539
1477 1478 1476 1476 1472 1470 1480 1487 1482 1479 1480 1485 1488 1492 1496 1500 1505 1509 1512 1515 1517 1519 1520 1522 1523 1524 1526 1527 1529 1531 1531 1533 1533 1534 1534 1534 1535 1535 1535 1535 1536 1536 1537 1537 1537 1537 1537 1538 1538
1480 1470 1470 1472 1480 1485 1483 1504 1488 1478 1479 1481 1484 1487 1491 1496 1501 1506 1509 1513 1515 1517 1519 1521 1522 1523 1525 1526 1528 1529 1530 1531 1532 1533 1534 1534 1534 1534 1534 1534 1535 1535 1536 1536 1536 1536 1537 1537 1537
1472 1468 1470 1473 1480 1485 1483 1497 1489 1474 1480 1478 1480 1484 1487 1492 1497 1502 1506 1510 1513 1516 1518 1519 1520 1522 1523 1525 1526 1528 1529 1530 1531 1532 1533 1533 1533 1533 1533 1534 1534 1534 1535 1535 1535 1536 1536 1536 1536
1467 1470 1472 1474 1482 1502 1488 1492 1491 1475 1474 1474 1477 1481 1485 1489 1494 1499 1504 1508 1512 1514 1516 1517 1518 1520 1522 1523 1525 1526 1528 1529 1530 1531 1531 1532 1532 1532 1532 1533 1533 1533 1534 1534 1534 1535 1535 1535 1535
1469 1482 1501 1505 1503 1504 1480 1486 1487 1468 1467 1470 1475 1479 1483 1488 1493 1497 1502 1506 1510 1513 1515 1516 1517 1518 1520 1522 1523 1524 1526 1527 1528 1529 1530 1531 1531 1531 1531 1532 1532 1532 1533 1533 1533 1534 1534 1534 1534
1473 1479 1501 1512 1508 1498 1482 1487 1477 1463 1465 1469 1473 1478 1482 1487 1491 1495 1500 1504 1507 1511 1513 1514 1515 1517 1518 1520 1521 1523 1524 1525 1526 1527 1528 1529 1529 1530 1530 1530 1531 1531 1531 1532 1532 1532 1532 1533 1533
1478 1477 1472 1486 1489 1498 1494 1483 1472 1464 1465 1468 1472 1476 1480 1485 1489 1493 1498 1502 1506 1509 1511 1512 1514 1515 1517 1518 1519 1521 1522 1523 1525 1526 1527 1527 1528 1528 1529 1529 1529 1530 1530 1530 1531 1531 1531 1531 1531
1469 1471 1478 1489 1505 1516 1504 1493 1488 1473 1470 1470 1471 1475 1479 1483 1487 1492 1497 1501 1504 1507 1509 1511 1512 1514 1515 1517 1518 1519 1520 1522 1523 1524 1524 1525 1526 1527 1527 1527 1527 1528 1528 1529 1529 1529 1529 1529 1529
1473 1475 1477 1484 1488 1510 1517 1504 1475 1473 1471 1473 1473 1475 1479 1482 1486 1490 1495 1499 1503 1506 1509 1510 1511 1513 1515 1516 1517 1518 1519 1520 1521 1522 1522 1523 1524 1524 1525 1525 1526 1526 1527 1527 1527 1527 1527 1527 1527
1465 1469 1474 1491 1496 1493 1505 1501 1468 1469 1471 1473 1475 1478 1479 1482 1485 1490 1493 1498 1501 1504 1507 1508 1510 1512 1512 1513 1515 1515 1517 1518 1518 1519 1520 1521 1521 1522 1522 1523 1523 1524 1524 1525 1525 1525 1525 1525 1525